Location: Newark
(35.1686°N, 108.2815°E)
Time: 03:02:17
(UTC+00:00)

Hubble Space Telescope - Pass Details

Date: 15 April 2020
Orbit: 536 x 540 km, 28.5° (Epoch: 30 May)

Event Time Altitude Azimuth Distance (km) Brightness Sun altitude
Rises 13:09:47 0° 257° (WSW) 2,668 5.0 -21.7°
Reaches altitude 10° 13:13:16 10° 226° (SW) 1,775 3.6 -22.3°
Enters shadow 13:14:30 12° 209° (SSW) 1,645 3.2 -22.5°
